Погода в Ромашках

Россия / Санкт-Петербург и Ленинградская область     60°43′05″N   29°48′22″E
темп.,
°C
ветер,
м/с
пор.,
м/с
влажн.,
%
обл.,
%
осадки,
мм/ч
давл.,
гПа
погр.,
м
26 июля, пн
пн2600:00+18юз3862100 0.0 1019229
03:00+18зюз396456 0.0 1019286
06:00+17юз277553 0.0 1019209
09:00+24з245342 0.0 1019669
12:00+28зсз243711 0.0 10192108
15:00+30ссз222796 0.0 10183118
18:00+27юв333975 0.0 1019980
21:00+22юз22585 0.0 101932
27 июля, вт
вт2700:00+18зюз22635 0.0 102018
03:00+16юз11650 0.0 102011
06:00+17юз11645 0.0 102014
09:00+25зюз123819 0.0 1020433
12:00+30зюз222910 0.0 10192486
15:00+32ю0224100 0.0 10173159
18:00+24юв2446100 0.0 1017134
21:00+22вюв225698 0.0 101619
28 июля, ср
ср2800:00+19вюв225796 0.0 101543
03:00+17юв226559 0.0 101440
06:00+18вюв2264100 0.0 101336
09:00+26вюв353833 0.0 1011588
12:00+29вюв453088 0.0 10092420
15:00+29юв5531100 0.0 10072283
18:00+26ююв354494 0.1 1006646
21:00+20ююз3980100 0.3 1006516
29 июля, чт
чт2900:00+17ююв2996100 0.1 1004345
03:00+17ююв279981 1.8 1002313
06:00+18юз4893100 1.1 1002519
09:00+20ююз488052 1.2 1000771
12:00+23юз695867 0.1 9991496
15:00+23юз6106055 0.9 9981647
18:00+21юз81365100 1.1 9981155
21:00+18юз71377100 1.1 9981134
30 июля, пт
пт3000:00+18юз71376100 0.0 9971137
03:00+17юз7147584 0.0 9971209
06:00+17юз6137511 0.0 9971108
09:00+20юз7126716 0.1 9971325
12:00+21зюз814515 0.1 9981788
15:00+23зюз815387 0.1 9992291
18:00+22зюз714464 0.0 9991990
21:00+18юз411605 0.0 999887